Location: Unnamed
(48.8836°N, 1.0859°W)
Time: 14:36:38
(UTC+02:00)

ISS - Pass Details

Date: 30 September 2021
Orbit: 417 x 423 km, 51.6° (Epoch: 16 October)

Event Time Altitude Azimuth Distance (km) Brightness Sun altitude
Rises 20:58:35 0° 289° (WNW) 2,366 2.0 -12.9°
Reaches altitude 10° 21:00:41 10° 290° (WNW) 1,501 0.5 -13.2°
Maximum altitude 21:04:03 85° 18° (NNE) 426 -3.8 -13.8°
Enters shadow 21:05:40 28° 107° (ESE) 812 -2.9 -14.0°
